Terug naar catalogus

STARLINK-36449

ActiefCommunicatieVLEO
NORAD 67308·PAYLOAD·🇺🇸 United States

Gelanceerd Jan 4, 2026 vanaf Cape Canaveral Space Force Station

Loading…

Volgende Passages (komende 24 uur)

TLE

VersSource: CelesTrak SupGP

Epoch: Sep 14, 2026, 22:41 UTC

1 67308C 26002D   26257.94562500 -.00019687  00000+0 -71314-3 0  2575
2 67308  43.0038 336.4497 0001498 274.8638  68.2885 15.27584137    11

Volg STARLINK-36449 in realtime met AllMySat

Download on the App Store